Location: Big Sandy Campground
(37.4666°N, 119.5821°W)
Time: 18:00:41
(UTC+00:00)

Cosmos 2242 Rocket - Pass Details

Date: 03 August 2024
Orbit: 616 x 647 km, 82.5° (Epoch: 12 September)

Event Time Altitude Azimuth Distance (km) Brightness Sun altitude
Rises 12:04:54 0° 352° (N) 2,896 7.3 -11.4°
Reaches altitude 10° 12:07:07 10° 351° (N) 1,989 6.5 -11.0°
Maximum altitude 12:11:32 83° 265° (W) 631 3.5 -10.2°
Drops below altitude 10° 12:15:56 10° 177° (S) 1,988 5.9 -9.5°
Sets 12:18:10 0° 176° (S) 2,896 6.7 -9.1°
